Location: Dehesa de la Cepeda
(40.6574°N, 4.3013°W)
Time: 00:39:01
(UTC+00:00)

Courier 1B - Pass Details

Date: 07 August 2021
Orbit: 963 x 1209 km, 28.3° (Epoch: 17 September)

Event Time Altitude Azimuth Distance (km) Brightness Sun altitude
Rises 15:09:38 0° 208° (SSW) 3,943 11.1 46.6°
Reaches altitude 10° 15:13:49 10° 186° (S) 3,035 10.5 45.8°
Maximum altitude 15:17:43 15° 154° (SSE) 2,719 10.0 45.1°
Drops below altitude 10° 15:21:42 10° 123° (ESE) 3,110 10.0 44.4°
Sets 15:26:04 0° 101° (ESE) 4,099 10.4 43.6°
